Probability
0 0 0 0 0 0 0 0 0 0 0 0 1 1 1 0 0 0 1 3 4 5 8 11 12 14 20 27 29 26 21 17 18 18 17 16 15 12 11 9 7 6 5 4
0 0 0 0 0 0 0 0 0 0 0 0 1 1 1 1 0 0 1 3 5 8 11 14 15 15 20 28 29 25 21 20 19 18 17 17 17 15 12 10 8 7 6 5
0 0 0 0 0 0 0 0 0 0 0 0 1 1 1 2 1 0 1 2 5 10 14 16 17 18 23 30 30 25 22 21 20 17 15 16 17 15 12 9 9 10 10 9
0 0 0 0 0 0 0 0 0 0 0 0 1 2 2 2 2 1 0 1 3 7 10 13 15 19 25 30 30 27 25 24 21 17 16 15 15 13 9 7 12 16 17 16
0 0 0 0 0 0 0 0 0 0 0 0 1 2 2 2 2 2 1 0 1 4 7 9 13 18 24 28 29 30 31 29 24 20 18 15 12 10 7 9 17 23 23 22
0 0 0 0 0 0 0 0 0 0 0 0 0 1 1 1 2 3 2 1 1 3 6 8 11 16 21 26 28 32 36 35 28 24 22 18 14 10 8 11 19 26 27 27
0 0 0 0 0 0 0 0 0 0 0 0 0 0 0 0 1 2 4 3 2 4 7 9 12 15 20 24 28 34 39 37 31 27 25 23 18 14 12 13 19 25 27 28
0 0 0 0 0 0 0 0 0 0 0 0 0 1 1 0 1 3 4 4 3 4 8 11 13 17 21 24 29 36 41 39 34 30 28 27 23 19 16 18 21 24 26 26
0 0 0 0 0 0 0 0 0 0 0 0 1 2 2 1 1 3 4 2 1 4 8 13 18 23 26 28 31 38 44 43 37 33 32 31 29 24 22 24 27 27 26 26
0 0 0 0 0 0 0 0 0 0 0 0 2 3 3 2 2 3 5 4 2 4 9 17 25 30 34 35 35 40 44 44 40 35 35 37 36 33 31 32 34 34 32 31
1 0 0 0 0 0 0 0 0 0 0 0 1 2 2 3 4 5 8 9 8 9 15 24 31 36 39 39 40 42 44 44 41 39 39 42 44 44 43 42 42 42 40 40
1 0 0 0 0 0 0 0 0 0 1 0 0 0 1 4 7 9 12 15 18 20 25 29 35 41 43 43 43 45 45 44 43 43 45 48 51 52 51 48 48 49 49 47
1 0 0 0 0 0 0 0 0 0 0 0 0 0 1 5 10 14 18 22 26 32 35 37 43 48 49 47 47 48 46 46 48 52 54 57 60 60 55 52 53 56 55 52
0 0 0 0 0 0 0 0 0 0 0 0 0 0 3 8 14 19 24 29 34 39 43 45 51 55 55 53 53 52 49 51 57 62 64 67 69 66 61 58 60 61 57 51
0 0 0 0 0 0 0 0 0 0 0 0 1 2 7 14 19 24 28 36 43 45 45 47 51 55 56 57 58 57 55 58 66 70 71 71 71 68 66 66 67 65 57 51
0 0 0 0 0 0 0 0 0 0 0 1 2 4 11 20 26 28 32 40 49 50 47 47 51 55 57 60 62 62 62 67 73 76 75 74 72 70 70 72 72 68 61 56
1 1 1 0 0 0 0 0 0 1 2 3 4 7 14 24 30 33 36 41 48 52 51 52 54 57 58 59 62 64 67 71 76 77 77 76 75 73 71 72 71 68 65 62
3 3 2 0 0 0 0 0 0 1 4 8 10 12 17 25 31 35 39 43 49 54 55 55 55 55 54 56 61 66 68 71 73 75 75 75 74 72 70 68 67 65 65 65
3 4 2 0 0 0 0 0 0 2 8 13 15 16 19 24 30 36 39 44 50 55 56 55 53 51 50 53 61 67 69 70 70 69 69 69 68 68 68 68 66 64 63 64
2 3 1 0 0 0 0 1 1 4 12 19 21 22 25 29 32 36 40 44 50 54 56 56 53 51 52 57 64 69 69 68 67 64 62 62 62 65 66 66 66 64 62 60
2 2 1 0 0 0 2 5 8 13 22 28 29 31 34 37 36 37 40 45 51 55 57 58 58 57 60 64 68 71 71 68 64 61 59 58 59 59 60 61 64 64 61 60
2 2 3 4 5 7 10 13 19 27 32 33 32 33 36 38 37 37 40 44 49 54 55 58 62 65 68 69 70 73 72 67 60 57 56 55 54 52 51 55 60 61 60 58
4 6 9 12 15 18 20 23 27 31 32 31 29 29 29 32 34 36 39 44 47 49 51 54 61 67 69 69 69 71 71 65 58 54 52 50 47 45 45 49 53 54 53 51
9 11 16 21 24 25 26 26 27 28 27 26 25 24 24 27 31 36 42 47 49 50 49 51 57 64 66 66 64 64 64 62 56 49 46 43 40 39 42 44 44 43 43 42
13 13 19 27 30 28 26 24 24 24 24 23 22 21 22 25 30 38 48 53 54 53 50 49 53 58 60 59 56 54 53 54 50 45 41 38 34 34 37 38 35 31 30 31
13 15 21 28 32 30 26 24 22 22 22 21 19 19 21 24 31 41 51 57 56 54 51 50 51 53 54 53 51 47 46 48 47 43 40 35 33 32 34 34 28 22 21 22
Wind_Speed
13 12 10 9 10 12 10 7 4 4 6 5 7 10 12 14 13 12 12 12 12 12 12 11 11 11 11 9 8 6 5 5 3 3 3 2 2 1 2 2 2 2 1 1
13 14 13 11 10 10 10 7 4 4 5 4 4 6 9 12 14 13 13 12 13 13 12 12 11 11 11 10 9 7 6 6 5 3 2 2 2 2 2 2 3 2 1 1
18 13 13 12 11 10 10 7 4 4 4 4 4 5 8 10 11 12 12 12 13 14 14 13 13 12 12 11 10 9 7 6 6 5 3 2 2 1 1 2 3 2 2 2
16 14 13 13 11 11 8 5 6 7 7 6 8 4 7 10 11 12 13 12 13 13 14 14 14 13 12 12 11 9 8 7 6 5 4 4 3 2 2 2 3 3 2 2
15 13 14 14 12 11 9 6 7 9 10 8 8 4 4 7 9 12 12 12 13 14 14 14 14 13 13 13 12 10 9 7 7 5 4 4 3 2 2 2 3 3 2 2
16 14 15 15 12 11 10 8 8 10 10 10 7 5 5 8 11 11 12 11 11 13 14 14 13 13 12 13 12 12 10 8 7 7 6 5 4 2 2 2 3 3 2 3
18 17 15 13 13 12 12 10 7 8 7 6 6 6 5 10 12 11 10 11 11 11 13 13 14 14 12 13 13 12 12 10 9 8 6 6 5 4 4 3 3 3 2 3
16 16 15 14 13 12 13 13 10 9 7 6 9 7 6 9 8 9 10 10 12 11 12 12 13 13 12 12 12 12 12 10 9 8 7 6 6 4 3 4 3 3 2 2
14 15 15 15 14 14 14 12 13 12 11 8 6 6 6 7 8 9 10 10 12 12 12 13 13 13 13 12 10 10 11 9 9 8 7 6 5 5 4 4 4 3 2 2
16 12 13 14 13 16 16 13 9 11 8 8 7 6 3 5 6 7 8 9 11 11 11 12 13 13 12 12 11 10 11 10 8 8 7 7 6 5 4 2 3 3 2 1
17 15 13 13 15 16 15 15 12 9 9 8 6 4 3 5 6 7 7 7 8 11 11 11 12 12 12 12 12 11 10 10 9 8 6 5 6 6 5 4 4 3 3 2
13 13 13 14 13 14 15 15 14 10 8 7 7 4 4 5 5 7 7 7 6 8 9 9 11 10 10 11 12 11 10 10 9 8 7 6 5 5 5 5 4 4 4 4
7 9 11 13 13 15 15 15 15 14 10 8 9 5 3 1 2 4 6 7 7 7 8 9 10 10 9 9 8 10 10 10 9 8 8 7 6 6 5 5 4 4 4 4
5 10 13 14 10 10 13 15 15 14 9 9 9 7 4 4 3 3 4 5 6 6 7 7 7 8 8 7 7 8 8 9 9 8 8 7 7 6 6 5 4 4 4 4
7 11 14 16 15 13 13 14 15 15 13 11 9 7 5 5 4 4 5 5 6 6 6 6 7 6 6 7 7 7 7 6 7 7 8 7 6 5 5 4 4 4 4 5
7 9 12 15 16 16 16 15 15 15 13 12 11 6 3 6 5 3 3 4 6 6 6 5 6 6 5 5 6 6 6 6 5 6 6 5 6 6 5 4 4 4 4 4
6 7 11 14 16 16 18 15 14 13 12 12 10 5 2 4 5 3 2 4 5 6 6 5 5 5 4 4 4 5 5 5 5 5 5 5 5 5 4 4 4 4 4 3
8 7 7 12 13 18 13 12 12 12 10 8 6 4 2 3 4 4 3 3 4 5 6 6 5 5 4 3 3 3 5 5 5 5 4 4 5 5 4 4 5 4 4 4
9 7 8 10 14 16 12 10 11 10 7 5 4 3 3 3 4 4 3 3 4 5 5 5 4 5 4 4 3 3 3 4 4 4 4 4 4 4 4 4 4 4 3 3
11 8 10 11 14 15 9 7 8 8 6 2 1 1 1 1 2 2 4 5 5 4 5 4 4 4 4 3 3 3 3 3 3 3 3 3 3 3 4 4 3 3 3 4
13 13 14 14 14 10 7 6 5 8 2 3 3 3 2 2 2 3 4 5 5 5 5 5 5 4 4 4 2 3 3 2 1 1 2 2 2 2 3 3 2 3 3 3
11 11 12 12 14 9 4 2 1 2 5 5 5 5 5 5 5 4 4 5 5 5 4 4 4 3 3 3 3 3 3 2 1 1 1 1 1 2 2 2 2 2 3 4
9 6 5 5 4 2 4 5 5 4 4 5 5 5 4 3 2 3 3 4 4 5 3 3 3 3 3 3 2 3 2 2 1 1 1 1 1 1 1 2 2 2 2 3
5 5 4 3 2 0 2 4 5 5 5 5 4 3 2 1 0 1 2 3 3 3 3 3 3 2 2 2 2 2 2 2 1 1 1 1 2 2 1 1 1 1 1 2
6 5 4 3 2 1 0 2 3 3 4 4 3 3 3 2 1 1 2 3 3 2 2 2 2 2 2 2 2 2 2 1 1 0 1 1 2 2 1 1 0 1 0 2
7 5 5 3 1 1 2 1 1 2 3 4 3 4 4 3 2 1 2 3 2 2 2 2 2 2 1 1 2 2 1 1 0 1 1 2 1 1 2 2 1 3 0 1
Wind_Direction
227 232 234 229 220 226 240 239 192 177 174 177 159 159 170 170 174 171 171 173 175 175 173 167 166 160 155 149 150 154 153 148 156 158 159 160 153 172 166 164 138 140 167 147
234 235 242 242 236 238 252 259 222 186 190 193 176 167 178 177 181 177 176 176 176 173 170 167 170 167 162 156 156 156 164 159 166 163 162 170 167 176 163 145 134 148 156 171
229 232 235 243 244 241 250 252 251 232 218 235 205 187 189 188 185 178 179 178 178 177 174 172 175 174 168 162 164 170 169 164 171 169 173 181 156 190 155 149 142 151 162 161
236 234 239 240 240 247 247 245 247 256 245 242 241 216 197 193 192 186 182 182 180 177 173 175 177 177 172 166 168 164 164 166 170 175 182 190 175 181 181 161 146 157 173 166
232 228 236 240 242 250 255 251 254 259 257 254 244 244 196 178 208 194 184 185 182 178 174 174 174 173 174 170 168 165 164 167 168 181 186 189 196 193 182 157 144 159 167 168
245 233 230 236 238 244 256 251 253 258 262 258 266 251 204 191 204 192 183 182 181 176 170 170 169 167 173 171 169 166 164 168 172 180 187 190 205 201 202 179 165 179 172 167
241 239 230 229 234 231 237 239 238 238 241 255 273 260 206 201 193 179 177 176 176 176 167 168 167 168 173 173 171 167 163 170 175 182 189 189 199 207 215 211 192 195 186 165
228 231 226 224 229 236 233 238 242 245 239 223 230 241 210 188 168 157 160 171 169 176 163 164 165 167 173 173 170 165 163 169 177 184 187 190 193 207 215 212 216 200 188 168
236 232 219 217 219 230 237 237 250 259 258 262 230 226 200 168 163 162 160 169 175 173 166 164 164 166 168 169 167 165 159 168 179 183 180 189 188 208 221 200 203 209 192 183
251 253 233 214 214 225 236 244 241 252 257 257 248 249 200 192 180 176 171 169 166 165 168 167 163 166 167 165 161 166 160 170 178 182 186 186 189 201 217 211 196 192 195 200
244 253 247 224 217 224 223 235 244 252 259 258 253 246 217 186 186 172 169 157 164 164 171 168 160 162 160 164 163 165 163 168 176 183 184 193 181 190 196 199 198 191 194 198
240 246 247 237 225 232 234 232 238 243 253 262 267 244 187 185 194 161 159 150 144 158 158 155 155 153 160 163 167 166 166 172 177 179 177 187 183 185 192 197 197 195 200 200
254 253 248 240 227 220 233 238 240 244 244 245 253 238 131 130 103 120 141 137 138 151 148 150 149 150 157 162 164 163 169 175 177 176 178 184 186 188 195 199 197 197 199 201
277 252 252 248 246 220 224 237 243 246 243 240 238 240 181 184 162 126 120 131 138 139 132 137 136 144 152 159 160 163 172 174 176 175 180 182 185 188 191 193 192 194 197 203
261 249 255 263 267 262 241 231 235 244 247 250 244 233 210 174 149 135 138 144 136 125 124 127 131 138 150 152 155 162 166 169 172 172 175 177 177 180 183 185 194 192 196 206
260 266 261 258 257 260 259 241 233 238 242 244 249 251 192 144 127 124 134 147 130 127 125 119 117 132 136 142 151 154 162 163 163 169 172 167 171 177 181 180 191 190 191 202
259 267 265 256 251 253 250 250 243 236 234 238 240 241 200 131 127 131 150 141 135 129 123 114 114 116 128 145 150 154 161 165 165 164 166 165 174 178 180 183 188 195 194 202
249 259 258 259 259 251 251 260 265 257 246 236 225 222 194 121 118 115 105 114 133 133 129 125 132 130 135 135 133 149 158 150 152 158 167 171 178 184 183 188 193 198 197 202
233 238 252 254 251 252 252 255 259 256 256 264 247 225 163 156 136 116 127 130 123 124 121 123 133 133 135 140 122 114 134 145 153 165 178 181 182 185 188 196 201 196 197 205
225 225 240 246 250 248 251 249 263 252 240 285 354 308 193 183 207 137 117 118 122 116 114 110 113 111 107 100 121 126 138 141 154 164 173 170 181 197 199 195 202 200 200 209
217 218 228 241 248 253 284 279 254 239 223 40 63 49 31 61 79 95 95 96 97 105 109 106 100 97 93 85 89 111 112 121 111 120 170 177 189 203 200 182 193 198 205 208
230 226 223 236 245 245 324 319 332 44 59 61 60 58 54 56 76 93 96 102 106 95 91 105 98 92 91 95 105 109 106 100 93 94 159 164 176 221 186 167 196 206 209 212
242 242 233 237 249 42 42 59 56 61 71 58 49 46 52 51 74 95 107 109 114 113 111 101 100 97 90 87 101 119 111 104 106 113 146 162 176 210 200 191 208 215 214 220
251 253 231 217 212 299 85 74 57 37 48 53 45 32 10 350 16 111 125 127 127 120 118 114 113 109 92 77 74 100 103 94 95 133 172 183 182 194 194 180 199 209 221 235
291 284 261 218 182 201 37 54 65 44 29 29 33 6 331 343 338 261 150 143 138 128 130 124 124 114 91 73 70 75 84 98 119 150 236 226 219 200 172 147 24 213 235 233
298 283 273 269 249 223 139 78 59 45 27 28 30 9 349 352 343 340 112 107 107 116 119 118 111 106 95 82 77 63 53 79 88 259 267 266 239 210 184 161 118 27 220 206